Location: Catstown
(52.4386°N, 7.2633°W)
Time: 01:57:44
(UTC+00:00)

ARIANE 5 R/B - Pass Details

Date: 18 September 2020
Orbit: 620 x 657 km, 98.2° (Epoch: 23 October)

Event Time Altitude Azimuth Distance (km) Brightness Sun altitude
Exits shadow 19:37:43 12° 83° (E) 1,898 4.5 -10.1°
Maximum altitude 19:39:40 15° 55° (NE) 1,696 4.5 -10.4°
Drops below altitude 10° 19:42:07 10° 20° (NNE) 2,004 5.1 -10.7°
Sets 19:45:07 0° 358° (N) 2,913 6.3 -11.2°
